Weather History for Millington, TN

Change the Weather History Date:

Wednesday, June 18, 2014

  Actual Average Record
Temperature  
Mean Temperature 82 °F -  
Max Temperature 91 °F 86 °F 98 °F (2004)
Min Temperature 73 °F 69 °F 57 °F (2008)
Cooling Degree Days 17    
Growing Degree Days 32 (Base 50)    
Moisture  
Dew Point 74 °F    
Average Humidity 77    
Maximum Humidity 94    
Minimum Humidity 55    
Precipitation  
Precipitation 0.00 in - - ()
Sea Level Pressure  
Sea Level Pressure 30.05 in    
Wind  
Wind Speed 3 mph (South)    
Max Wind Speed 10 mph    
Max Gust Speed -    
Visibility 10 miles    
Events      
Averages and records for this station are not official NWS values.
T = Trace of Precipitation, MM = Missing Value Source: NWS Daily Summary

Daily Weather History Graph

Daily Weather History Graph

Search for Another Location

Airport:

Trip Planner

Search our weather history database for the weather conditions in past years. The results will help you decide how hot, cold, wet, or windy it might be!

Date:

Astronomy

Jun. 18, 2014 Rise Set
Actual Time 5:44 AM CDT 8:16 PM CDT
Civil Twilight 5:14 AM CDT 8:46 PM CDT
Nautical Twilight 4:37 AM CDT 9:23 PM CDT
Astronomical Twilight 3:56 AM CDT 10:05 PM CDT
Moon No Moon Rise 11:55 AM CDT (6/18)
Length of Visible Light 15h 32m
Length of Day
14h 32m
Waning Gibbous, 62% of the Moon is Illuminated
Jun 18
Waning Gibbous
Jun 19
Last Quarter
Jun 27
New
Jul 5
First Quarter
Jul 12
Full

Hourly Weather History & Observations

Time (CDT) Temp. Heat Index Dew Point Humidity Pressure Visibility Wind Dir Wind Speed Gust Speed Precip Events Conditions
1:50 AM 75.2 °F - 73.4 °F 94% 30.06 in 10.0 mi Calm Calm - N/A   Scattered Clouds
2:15 AM 75.2 °F - 73.4 °F 94% 30.05 in 10.0 mi Calm Calm - N/A   Clear
2:35 AM 77.0 °F - 73.4 °F 89% 30.05 in 10.0 mi SSE 3.5 mph - N/A   Clear
2:55 AM 78.8 °F - 73.4 °F 83% 30.05 in 10.0 mi South 3.5 mph - N/A   Clear
3:15 AM 78.8 °F - 73.4 °F 83% 30.04 in 10.0 mi South 3.5 mph - N/A   Clear
3:35 AM 78.8 °F - 73.4 °F 83% 30.03 in 10.0 mi SSE 4.6 mph - N/A   Clear
3:55 AM 78.8 °F - 73.4 °F 83% 30.04 in 10.0 mi SSE 3.5 mph - N/A   Clear
4:15 AM 78.8 °F - 73.4 °F 83% 30.04 in 10.0 mi Variable 3.5 mph - N/A   Clear
4:35 AM 78.8 °F - 73.4 °F 83% 30.04 in 10.0 mi Calm Calm - N/A   Clear
4:55 AM 77.0 °F - 73.4 °F 89% 30.04 in 10.0 mi Calm Calm - N/A   Clear
5:50 AM 73.4 °F - 71.6 °F 94% 30.06 in 10.0 mi Calm Calm - N/A   Partly Cloudy
6:50 AM 75.2 °F - 73.4 °F 94% 30.07 in 10.0 mi ESE 3.5 mph - N/A   Partly Cloudy
8:50 AM 84.2 °F 92.3 °F 75.2 °F 74% 30.08 in 10.0 mi SSW 10.4 mph - N/A   Partly Cloudy
9:50 AM 87.8 °F 97.6 °F 75.2 °F 66% 30.08 in 10.0 mi SSW 9.2 mph - N/A   Scattered Clouds
10:50 AM 87.8 °F 97.6 °F 75.2 °F 66% 30.09 in 10.0 mi SSW 9.2 mph - N/A   Scattered Clouds
11:50 AM 89.6 °F 99.8 °F 75.2 °F 62% 30.09 in 10.0 mi South 8.1 mph - N/A   Mostly Cloudy
12:50 PM 89.6 °F 99.8 °F 75.2 °F 62% 30.09 in 10.0 mi SW 6.9 mph - N/A   Mostly Cloudy
1:50 PM 91.4 °F 102.5 °F 75.2 °F 59% 30.07 in 10.0 mi SSW 8.1 mph - N/A   Mostly Cloudy
2:50 PM 91.4 °F 100.1 °F 73.4 °F 55% 30.05 in 10.0 mi SSW 5.8 mph - N/A   Mostly Cloudy
4:50 PM 87.8 °F 97.6 °F 75.2 °F 66% 30.04 in 10.0 mi South 6.9 mph - N/A   Mostly Cloudy
6:50 PM 89.6 °F 99.8 °F 75.2 °F 62% 30.02 in 10.0 mi Variable 5.8 mph - N/A   Mostly Cloudy
7:50 PM 87.8 °F 95.6 °F 73.4 °F 62% 30.03 in 10.0 mi SSE 3.5 mph - N/A   Scattered Clouds
8:50 PM 84.2 °F 90.9 °F 73.4 °F 70% 30.04 in 10.0 mi SSE 3.5 mph - N/A   Scattered Clouds
11:50 PM 77.0 °F - 73.4 °F 89% 30.04 in 10.0 mi Calm Calm - N/A   Scattered Clouds